FW0527 Weather Reports


time (UTC)temp
C
wind
direction
speed
KPH
gust
KPH
rain 1hr
cm
rain 24hr
cm
rain mn
cm
humidity
%
barometer
mb
20260502123045 9 121 0.0 0.0 0.00 0.00 0.00 63 1011.8
20260502121555 9 121 0.0 0.0 0.00 0.00 0.00 65 1011.8
20260502114542 9 121 0.0 0.0 0.00 0.00 0.00 64 1011.9
20260502113041 9 121 0.0 0.0 0.00 0.00 0.00 63 1011.8
20260502111542 9 121 0.0 0.0 0.00 0.00 0.00 63 1011.8
20260502110042 9 121 0.0 0.0 0.00 0.00 0.00 63 1011.7
20260502104544 9 121 0.0 0.0 0.00 0.00 0.00 65 1011.6
20260502103049 9 121 0.0 0.0 0.00 0.00 0.00 63 1011.6
20260502101555 9 121 0.0 0.0 0.00 0.00 0.00 62 1011.6
20260502071516 10 308 0.0 0.0 0.00 0.00 0.00 67 1012.8
20260502070021 10 308 0.0 0.0 0.00 0.00 0.00 67 1012.8
20260502064526 10 308 0.0 0.0 0.00 0.00 0.00 66 1012.6
20260502063013 10 308 0.0 0.0 0.00 0.00 0.00 68 1012.7
20260502061511 10 307 0.0 0.0 0.00 0.00 0.00 66 1012.8
20260502060011 11 307 0.0 0.0 0.00 0.00 0.00 67 1012.8
20260502054513 11 307 0.0 0.0 0.00 0.00 0.00 68 1012.8
20260502053011 11 307 0.0 0.0 0.00 0.00 0.00 68 1012.7
20260502051510 11 307 0.0 0.0 0.00 0.00 0.00 67 1012.6
20260502050010 11 307 0.0 0.0 0.00 0.00 0.00 69 1012.6
20260502044510 12 307 0.0 0.0 0.00 0.00 0.00 71 1012.6
20260502043014 12 307 0.0 0.0 0.00 0.00 0.00 67 1012.4
20260502041509 13 307 0.0 0.0 0.00 0.00 0.00 71 1012.3
20260502040012 13 307 0.0 0.0 0.00 0.00 0.00 71 1012.1
20260502034507 14 307 0.0 0.0 0.00 0.00 0.00 71 1012.0
20260502033007 15 307 0.0 0.0 0.00 0.00 0.00 70 1011.9
20260502031506 16 307 0.0 0.0 0.00 0.00 0.00 67 1011.7
20260502030006 16 307 0.0 0.0 0.00 0.00 0.00 66 1011.6
20260502024506 17 307 0.0 0.0 0.00 0.00 0.00 64 1011.5
20260502023008 17 307 0.0 0.0 0.00 0.00 0.00 63 1011.4
20260502021507 18 309 0.0 0.0 0.00 0.00 0.00 61 1011.3
20260502020007 19 305 0.0 0.0 0.00 0.00 0.00 59 1011.2
20260502014503 20 298 0.0 0.0 0.00 0.00 0.00 57 1011.2
20260502013002 20 309 0.0 0.0 0.00 0.00 0.00 55 1011.1
20260502011503 21 315 0.0 0.0 0.00 0.00 0.00 53 1011.2
20260502010100 21 302 0.0 14.5 0.00 0.00 0.00 50 1011.3
20260502010001 21 321 0.0 14.5 0.00 0.00 0.00 50 1011.3
20260502004607 22 290 0.0 6.4 0.00 0.00 0.00 47 1011.2
20260502003059 22 313 0.0 4.8 0.00 0.00 0.00 45 1011.1
20260502001557 22 338 0.0 17.7 0.00 0.00 0.00 43 1011.3
20260502000113 22 329 0.0 9.7 0.00 0.00 0.00 36 1011.4
20260501234555 23 311 0.0 3.2 0.00 0.00 0.00 39 1011.3
20260501233054 23 254 0.0 11.3 0.00 0.00 0.00 38 1011.2
20260501231601 23 306 0.0 16.1 0.00 0.00 0.00 38 1011.3
20260501230051 23 292 0.0 11.3 0.00 0.00 0.00 36 1011.6
20260501224557 23 318 0.0 16.1 0.00 0.00 0.00 37 1011.9
20260501223047 23 315 0.0 17.7 0.00 0.00 0.00 36 1012.1
20260501221602 24 304 0.0 12.9 0.00 0.00 0.00 35 1012.4
20260501220050 25 232 0.0 3.2 0.00 0.00 0.00 32 1012.5
20260501214542 26 292 0.0 1.6 0.00 0.00 0.00 27 1012.5
20260501213042 26 320 0.0 9.7 0.00 0.00 0.00 23 1012.6
20260501211539 26 254 1.6 22.5 0.00 0.00 0.00 28 1012.6
20260501210038 26 279 0.0 1.6 0.00 0.00 0.00 26 1012.7
20260501204537 26 310 0.0 6.4 0.00 0.00 0.00 28 1012.7
20260501203034 26 307 0.0 17.7 0.00 0.00 0.00 28 1012.7
20260501201532 26 315 0.0 17.7 0.00 0.00 0.00 29 1012.7
20260501200031 26 324 0.0 19.3 0.00 0.00 0.00 28 1012.7
20260501194529 26 302 0.0 14.5 0.00 0.00 0.00 34 1012.8
20260501193035 25 300 0.0 9.7 0.00 0.00 0.00 35 1013.1
20260501191532 25 288 0.0 6.4 0.00 0.00 0.00 34 1013.1
20260501190048 25 253 0.0 11.3 0.00 0.00 0.00 34 1013.1
20260501184534 26 323 0.0 19.3 0.00 0.00 0.00 32 1013.2
20260501183024 25 292 0.0 14.5 0.00 0.00 0.00 29 1013.3
20260501181523 25 321 0.0 14.5 0.00 0.00 0.00 31 1013.3
20260501180023 25 290 0.0 12.9 0.00 0.00 0.00 29 1013.4
20260501174521 25 243 0.0 0.0 0.00 0.00 0.00 29 1013.4
20260501173019 25 304 0.0 0.0 0.00 0.00 0.00 31 1013.3
20260501171515 25 338 0.0 0.0 0.00 0.00 0.00 33 1013.2
20260501170011 23 309 0.0 0.0 0.00 0.00 0.00 37 1013.4
20260501164513 23 320 0.0 0.0 0.00 0.00 0.00 38 1013.5
20260501163002 21 307 0.0 0.0 0.00 0.00 0.00 41 1013.4
20260501161613 20 306 0.0 0.0 0.00 0.00 0.00 43 1013.5
20260501160111 17 294 0.0 0.0 0.00 0.00 0.00 56 1013.5
20260501154624 14 317 0.0 0.0 0.00 0.00 0.00 68 1013.4
20260501153048 12 75 0.0 0.0 0.00 0.00 0.00 86 1013.5
20260501151541 11 77 0.0 0.0 0.00 0.00 0.00 88 1013.4
20260501150054 10 76 0.0 0.0 0.00 0.00 0.00 90 1013.5
20260501144534 8 76 0.0 0.0 0.00 0.00 0.00 90 1013.4
20260501143036 8 69 0.0 0.0 0.00 0.00 0.00 89 1013.3
20260501141551 7 68 0.0 0.0 0.00 0.00 0.00 89 1013.3
20260501140034 7 68 0.0 0.0 0.00 0.00 0.00 90 1013.3